Preview of NWS' New Version of Forecast
This preview is not operational and should not be used for support decisions.

Regional Weather Roundup (RWR)

Issued by National Weather Service (NWS)

                            
000
ASUS42 KTBW 171618
RWRFL 
FLORIDA REGIONAL WEATHER ROUNDUP
NATIONAL WEATHER SERVICE TAMPA BAY RUSKIN FL
1200 PM EDT WED JUL 17 2019

NOTE: "FAIR" INDICATES FEW OR NO CLOUDS BELOW 12,000 FEET WITH NO
SIGNIFICANT WEATHER AND/OR OBSTRUCTIONS TO VISIBILITY.

FLZ001>010-012>015-112-114-115-171700-
PANHANDLE FLORIDA
  
CITY           SKY/WX    TMP DP  RH WIND       PRES   REMARKS
PENSACOLA      PTSUNNY   89  78  70 VRB3      30.15S HX 103           
PENSACOLA NAS  FAIR      89  76  65 VRB3      30.14F HX 100           
MILTON NAS     FAIR      88  73  61 SW3       30.16S HX  95           
CRESTVIEW      PTSUNNY   88  73  61 NW5       30.17S HX  95           
DUKE FIELD     FAIR      89  73  59 W7        30.15S HX  97           
VALPARAISO     FAIR      89  75  64 S9        30.14S HX  99           
MARY ESTHER    MOSUNNY   89  76  64 VRB5      30.13S HX 100           
TRI COUNTY     FAIR      90  78  68 NW5       30.16S HX 104           
PANAMA CITY    PTSUNNY   90  74  59 CALM      30.14S HX  99           
TYNDALL AFB    FAIR      89  77  66 SW8       30.14S HX 101           
APALACHICOLA   FAIR      90  77  65 S8        30.14R HX 103           

STATION/POSITION SKY/WX   TEMP    WIND        PRES    WAVE   SWELL
                          AIR SEA DIR/SP/G            HT/PER HT/PER
                          (F)     (DEG/KT/KT) (MB)    (FT/S) (FT/S)
30.1N   87.6W              84 86  250/  2/  4 1021.2R   1/ 6   2/ 6
29.2N   88.2W              85 84   10/  2/  4 1021.3
28.8N   86.0W              86 86  140/  2/  4 1021.1R   1/ 5   2/ 5
PANAMA CITY BEAC           85 87  260/  4/  5 1021.6R
TOWER C                    84        CALM     1021.2R
28.5N   84.5W              86      40/  4/  6 1021.3R   1/ 6   2/ 6

$$
FLZ011-016>038-118-127-128-134-139-239-171700-
NORTH FLORIDA
  
CITY           SKY/WX    TMP DP  RH WIND       PRES   REMARKS
MARIANNA       FAIR      88  77  69 VRB6      30.15S HX 100           
TALLAHASSEE    FAIR      91  77  63 VRB3      30.15R HX 104           
PERRY          FAIR      94  76  56 N3        30.15S HX 107           
LIVE OAK       SUNNY     91  75  59 VRB3      30.14S HX 102           
CROSS CITY     FAIR      92  76  59 CALM      30.14S HX 105           
LAKE CITY      FAIR      88  72  58 NW3       30.15S                  
GAINESVILLE    FAIR      89  75  63 CALM      30.16S HX  99           
WILLISTON      FAIR      90  75  61 CALM      30.14S HX 101           
PALATKA        FAIR      91  75  59 CALM      30.14S HX 102           
MAYPORT NAS    FAIR      90  77  65 E9        30.13R HX 103           
JACKSONVILLE   PTSUNNY   93  74  53 NW6       30.12S HX 103           
JAX NAS        FAIR      93  73  52 NE5       30.14R HX 102           
JAX CECIL      MOSUNNY   95  75  52 NW5       30.13S HX 107           
FERNANDINA BEA FAIR      92  75  58 NW8       30.13S HX 102           
ST AUGUSTINE   FAIR      90  77  65 CALM      30.14S HX 103           
PALM COAST     SUNNY     90  73  58 W3        30.14S HX  98           

STATION/POSITION SKY/WX   TEMP    WIND        PRES    WAVE   SWELL
                          AIR SEA DIR/SP/G            HT/PER HT/PER
                          (F)     (DEG/KT/KT) (MB)    (FT/S) (FT/S)
SHELL POINT      NOT AVBL
KEATON BEACH               88     280/  6/  7 1020.9R
CEDAR KEY                  86     170/  3/  4 1020.9R
FERNANDINA                 92 85  340/  3/  5 1021.0R
30.7N   81.3W                 84                N/A     1/11
MAYPORT          NOT AVBL
31.4N   80.9W              85 86  220/  4/  4 1020.0R   1/ 9   2/ 9
ST AUGUSTINE               81 78  120/  7/  7 1020.7S

$$
FLZ040-043>046-052-053-057-058-063-144-171700-
INTERIOR CENTRAL FLORIDA
  
CITY           SKY/WX    TMP DP  RH WIND       PRES   REMARKS
OCALA          FAIR      91  75  59 VRB3      30.15S HX 101           
LEESBURG       FAIR      90  75  61 S6        30.15S HX 100           
SANFORD        FAIR      91  73  55 CALM      30.15R HX  99           
ORLANDO EXEC   FAIR      89  73  59 S6        30.15S HX  97           
ORLANDO INTL   FAIR      90  74  59 VRB5      30.14F HX  99           
KISSIMMEE      FAIR      88  75  65 S6        30.16  HX  97           
WINTER HAVEN   FAIR      90  73  57 S7        30.16S HX  98           
LAKELAND       SUNNY     90  73  58 S8        30.15S HX  98           
BARTOW         PTSUNNY   88  75  66 SE8       30.14S HX  97           
SEBRING        FAIR      89  73  59 S7        30.15S HX  97           
OKEECHOBEE     FAIR      86  73  66 S5        30.15R                  

$$
FLZ041-047-054-059-064-141-147-171700-
EAST CENTRAL FLORIDA
  
CITY           SKY/WX    TMP DP  RH WIND       PRES   REMARKS
ORMOND BEACH   MOSUNNY   90  75  62 CALM      30.14S HX 100           
DAYTONA BEACH  FAIR      91  76  61 E3        30.14S HX 103           
DELAND         FAIR      88  73  62 NE3       30.14S HX  96           
NEW SMYRNA BEA MOSUNNY   90  75  62 SE6       30.16R HX 100           
JFK SPACE CTR  FAIR      89  62  39 S5        30.14S                  
TITUSVILLE     MOSUNNY   91  70  49 S12       30.16R HX  97           
CAPE CANAVERAL FAIR      89  53  28 S10       30.14R                  
PATRICK AFB    FAIR      87  79  76 E12       30.15R HX 102           
MELBOURNE      FAIR      90  72  55 SE6       30.14S HX  97           
VERO BEACH     LGT RAIN  88  75  65 E8        30.15S HX  97           
FT PIERCE      FAIR      88  74  63 E12       30.14S HX  96           
STUART         MOSUNNY   86  72  62 VRB6      30.15F                  

STATION/POSITION SKY/WX   TEMP    WIND        PRES    WAVE   SWELL
                          AIR SEA DIR/SP/G            HT/PER HT/PER
                          (F)     (DEG/KT/KT) (MB)    (FT/S) (FT/S)
28.5N   80.2W              83 84  190/  4/  4 1021.3R   1/10   2/10
28.9N   78.5W              85 86  190/  8/ 12   N/A
TRIDENT PIER               86 84  150/  7/  9 1022.5R
28.4N   80.5W                 83                N/A     1/10
27.5N   80.2W                 83                N/A     1/ 9

$$
FLZ050-056-061-142-242-148-248-149-249-151-251-155-255-
160-260-171700-
WEST CENTRAL FLORIDA
  
CITY           SKY/WX    TMP DP  RH WIND       PRES   REMARKS
CRYSTAL RIVER  FAIR      90  77  66 CALM      30.14S HX 102           
INVERNESS      FAIR      91  75  59 CALM      30.14F HX 102           
BROOKSVILLE    FAIR      89  78  70 MISG      30.15S HX 103           
CLEARWATER AIR FAIR      88  75  66 SE3       30.14F HX  97           
ST PETE CLEARW FAIR      88  75  65 S6        30.14S HX  97           
TAMPA INTL     FAIR      87  78  74 SW8       30.15R HX 100           
TAMPA EXEC     FAIR      88  75  66 CALM      30.15S HX  97           
PLANT CITY     FAIR     N/A N/A N/A MISG      30.17S                  
MACDILL AFB    FAIR      88  77  71 S5        30.15R HX 100           
PETER O KNIGHT CLOUDY    88  79  74 SW5       30.15S HX 102           
ST PETERSBURG  FAIR      87  76  69 S8        30.13S HX  97           
SARASOTA       FAIR      88  77  69 W10       30.13R HX 100           
VENICE         FAIR      90  77  66 S9        30.15S HX 102           

STATION/POSITION SKY/WX   TEMP    WIND        PRES    WAVE   SWELL
                          AIR SEA DIR/SP/G            HT/PER HT/PER
                          (F)     (DEG/KT/KT) (MB)    (FT/S) (FT/S)
27.3N   84.2W                 87                N/A     1/ 4
CLEARWATER BEACH           85 88  210/  9/ 10 1021.0R
MIDDLE TAMPA BAY           85     270/  4/  5 1021.1R
VENICE                     85 85  200/  9/ 10 1020.7R

$$
FLZ066-069-070-075>078-162-262-165-265-171700-
SOUTHWEST FLORIDA AND KEYS
  
CITY           SKY/WX    TMP DP  RH WIND       PRES   REMARKS
PUNTA GORDA    FAIR      89  72  56 S10       30.15S HX  96           
FT MYERS       FAIR      90  71  53 VRB7      30.13S HX  96           
SOUTHWEST INTL FAIR      89  73  59 E6        30.14S HX  97           
NAPLES         MOSUNNY  N/A N/A N/A SE9       30.14R                  
MARCO ISLAND   FAIR      91  73  55 MISG      30.14S HX  99           
IMMOKALEE      FAIR      91  73  55 E7        30.12S HX 100           
MARATHON       FAIR      91  76  61 SE8       30.12S HX 103           
KEY WEST NAS   FAIR      92  76  59 E13       30.11S HX 104           
KEY WEST INTL  FAIR      89  76  65 E12       30.12S HX 100           

STATION/POSITION SKY/WX   TEMP    WIND        PRES    WAVE   SWELL
                          AIR SEA DIR/SP/G            HT/PER HT/PER
                          (F)     (DEG/KT/KT) (MB)    (FT/S) (FT/S)
NAPLES                     88 87              1020.4S
26.0N   85.6W              85 85  120/ 10/ 12 1020.5R   2/ 4   2/ 5
DRY TORTUGAS               85     120/ 10/ 11 1020.1R
SAND KEY                   86     100/ 11/ 12 1018.7
SOMBRERO KEY               85     100/ 11/ 12 1020.1
LONG KEY                   86                 1019.4

$$
FLZ067-068-071>074-168-172>174-171700-
SOUTHEAST FLORIDA 
  
CITY           SKY/WX    TMP DP  RH WIND       PRES   REMARKS
W PALM BEACH   PTSUNNY   89  73  59 SE12      30.14F HX  97           
BOCA RATON     MOSUNNY   91  75  59 SE8       30.14S HX 102           
FT LAUDER-EXEC FAIR      91  72  53 SE10      30.13F HX  98           
FT LAUDERDALE  PTSUNNY   87  75  67 E13       30.13S HX  96           
POMPANO BEACH  FAIR      90  72  55 SE13      30.14S HX  97           
PEMBROKE PINES FAIR      91  73  55 SE12      30.14F HX  99           
OPA LOCKA      FAIR      90  75  61 SE13      30.13F HX 100           
MIAMI          FAIR      90  72  55 E9        30.13F HX  97           
WEST KENDALL   FAIR      92  75  57 E13       30.13S HX 103           
HOMESTEAD      FAIR      89  76  66 E8        30.12S HX 100           

STATION/POSITION SKY/WX   TEMP    WIND        PRES    WAVE   SWELL
                          AIR SEA DIR/SP/G            HT/PER HT/PER
                          (F)     (DEG/KT/KT) (MB)    (FT/S) (FT/S)
PORT EVERGLADES            89     110/  4/  7 1020.7
VIRGINIA KEY               86 88   80/  6/  8 1020.1S
LAKE WORTH                 84 85  130/  9/ 11 10